Date,TemperatureHighF,TemperatureAvgF,TemperatureLowF,DewpointHighF,DewpointAvgF,DewpointLowF,HumidityHigh,HumidityAvg,HumidityLow,PressureMaxIn,PressureMinIn,WindSpeedMaxMPH,WindSpeedAvgMPH,GustSpeedMaxMPH,PrecipitationSumIn
2013-1-1,34.9,31.1,27.1,27.2,22.9,20.2,86,72,61,29.80,29.22,6,2,8,0.00
2013-1-2,27.3,22.5,18.3,22.2,18.4,14.9,92,84,74,29.61,29.24,5,0,3,0.00
2013-1-3,30.0,26.5,20.7,23.8,19.3,13.7,85,74,66,29.72,29.61,5,1,6,0.00
2013-1-4,23.7,18.1,12.6,17.8,12.5,8.2,89,79,71,29.89,29.70,3,0,0,0.00
2013-1-5,18.7,15.3,13.2,15.0,11.1,8.6,91,83,77,29.88,29.45,2,0,4,0.00
2013-1-6,18.8,14.6,9.5,14.0,9.9,5.7,90,81,72,29.46,29.29,2,0,0,0.00
2013-1-7,15.6,9.2,0.3,12.6,5.5,-3.2,92,85,79,29.29,29.26,2,0,2,0.00
2013-1-8,0.0,-2.8,-6.9,-1.9,-6.3,-10.9,96,85,77,30.14,29.27,1,0,0,0.00
2013-1-9,2.3,-1.7,-5.6,-0.6,-5.4,-10.0,94,84,74,30.21,29.95,1,0,0,0.00
2013-1-10,11.5,7.9,1.9,9.1,5.0,-1.5,94,88,83,30.13,29.93,2,0,0,0.00
2013-1-11,13.8,11.9,6.8,12.1,9.5,3.4,96,90,82,30.24,29.92,1,0,0,0.00
2013-1-12,27.8,20.0,12.6,26.3,18.2,8.2,99,93,81,30.23,29.78,0,0,0,0.00
2013-1-13,35.4,31.5,27.9,34.7,30.7,26.2,99,97,91,29.81,29.59,2,0,0,0.00
2013-1-14,37.9,32.9,24.6,37.1,32.3,22.1,100,98,90,29.91,29.31,6,1,3,0.36
2013-1-15,24.6,11.8,7.7,21.1,9.4,4.8,92,90,87,30.26,29.91,7,2,14,0.00
2013-1-16,12.9,9.0,6.1,10.3,6.4,3.2,91,89,84,30.27,29.89,3,0,5,0.00
2013-1-17,12.6,1.0,-11.9,10.3,-2.9,-15.7,91,83,77,30.21,29.85,5,1,1,0.00
2013-1-18,-0.8,-9.4,-15.0,-6.1,-13.9,-19.9,87,80,71,30.46,30.21,5,0,1,0.00
2013-1-19,8.1,2.8,-9.2,1.1,-3.8,-15.0,90,74,60,30.46,30.26,6,2,6,0.00
2013-1-20,10.8,6.7,3.6,7.7,3.3,-0.6,93,85,81,30.26,30.06,0,0,0,0.00
2013-1-21,7.8,4.4,-0.8,5.0,1.0,-5.0,91,85,78,30.19,30.07,0,0,0,0.00
2013-1-22,12.9,6.0,1.5,8.5,1.5,-2.8,89,81,74,30.07,29.80,6,1,0,0.00
2013-1-23,8.3,4.6,0.0,2.3,-2.5,-8.6,82,72,65,29.80,29.67,9,4,4,0.00
2013-1-24,0.0,-5.9,-12.7,-6.8,-14.5,-19.5,84,66,59,29.88,29.73,9,5,9,0.00
2013-1-25,-11.0,-20.4,-29.4,-17.6,-25.7,-36.9,100,76,65,30.04,29.88,3,0,4,0.00
2013-1-26,-21.1,-27.5,-33.0,-24.6,-32.5,-38.6,93,76,64,30.17,30.04,0,0,0,0.00
2013-1-27,-30.7,-35.7,-39.3,-33.9,-40.9,-45.7,100,74,63,30.59,30.17,0,0,0,0.00
2013-1-28,-6.3,-24.9,-38.0,-11.1,-30.2,-46.1,98,76,54,30.62,30.10,7,1,3,0.00
2013-1-29,-3.6,-7.9,-11.9,-9.9,-14.6,-18.0,87,72,58,30.10,29.93,6,1,8,0.00
2013-1-30,9.7,1.2,-8.1,6.5,-3.5,-12.7,98,80,74,29.99,29.74,3,0,0,0.00
2013-1-31,12.9,7.3,3.7,9.5,3.9,-0.5,91,86,80,30.15,29.77,2,0,2,0.00